Home   Weather   Zarqa   Past weeks

Flag for Jordan Past Weather in Zarqa, Jordan — Yesterday and Last 2 Weeks

Now
61 °F

Haze.


Feels Like: 61 °F
Forecast: 59 / 85 °F
Wind: 6 mph from Northwest

Location: Amman Airport

Current Time: Sep 27, 2016 at 6:50:58 AM

Latest Report: Sep 27, 2016 at 6:00 AM


Visibility: 3 mi

Pressure: 30.01 "Hg (27.91 "Hg at 615m altitude)

Humidity: 88%

Dew Point: 57 °F

Location of ZarqaLocation

Past Weather in Zarqa — Graph

°F

Zarqa Temperature Yesterday

Maximum temperature yesterday: 81 °F (at 2:00 PM)
Minimum temperature yesterday: 64 °F (at 6:00 AM)
Average temperature yesterday: 71 °F

High & Low Weather Summary for the Past Weeks

 TemperatureHumidityPressure
High93 °F (Sep 20, 3:00 PM)88% (Sep 17, 7:00 AM)30.07 "Hg (Sep 17, 7:00 AM)
Low55 °F (Sep 14, 10:00 AM)13% (Sep 20, 3:00 PM)29.83 "Hg (Sep 25, 4:00 PM)
Average75 °F50%29.98 "Hg
* Reported Sep 12 6:00 AM — Sep 27 6:00 AM, Zarqa, Weather by CustomWeather, © 2016

Note: Actual official high and low records may vary slightly from our data, if they occured in-between our weather recording intervals... More about our weather records

Advertising

Zarqa Weather History for the Previous 24 Hours

Scroll right to see more
 ConditionsComfort  
Time TempWeatherWind HumidityBarometerVisibility
6:00 AM
Tue, Sep 27
61 °FHaze.6 mph88%30.01 "Hg3 mi
4:00 AM61 °FHaze.12 mph88%30.01 "Hg3 mi
3:00 AM63 °FHaze.12 mph77%30.01 "Hg3 mi
2:00 AM63 °FHaze.7 mph83%30.01 "Hg3 mi
1:00 AM63 °FHaze.7 mph83%30.01 "Hg3 mi
12:00 AM64 °FHaze.7 mph73%30.01 "Hg3 mi
11:00 PM
Mon, Sep 26
64 °FHaze.6 mph68%30.04 "Hg3 mi
10:00 PM66 °FHaze.9 mph68%29.98 "Hg3 mi
9:00 PM68 °FHaze.10 mph69%29.98 "Hg3 mi
8:00 PM68 °FClear.12 mph64%29.98 "Hg4 mi
7:00 PM72 °FClear.12 mph53%29.95 "Hg4 mi
6:00 PM75 °FClear.14 mph54%29.95 "Hg4 mi
5:00 PM77 °FClear.14 mph44%29.92 "Hg4 mi
4:00 PM81 °FClear.12 mph37%29.92 "Hg4 mi
3:00 PM81 °FClear.9 mph42%29.92 "Hg4 mi
2:00 PM81 °FClear.7 mph42%29.95 "Hg4 mi
1:00 PM79 °FClear.7 mph45%29.95 "Hg4 mi
12:00 PM79 °FClear.7 mph45%29.95 "Hg4 mi
11:00 AM75 °FClear.7 mph41%29.95 "Hg4 mi
10:00 AM73 °FHaze.6 mph47%29.95 "Hg3 mi
9:00 AM70 °FHaze.5 mph57%29.95 "Hg3 mi
8:00 AM66 °FHaze.12 mph68%29.95 "Hg3 mi
7:00 AM64 °FHaze.6 mph68%29.92 "Hg3 mi
6:00 AM64 °FHaze.6 mph68%29.92 "Hg3 mi
Weather by CustomWeather, © 2016

See weather overviewHow to use our weather pages